Hourly Data Report for October 06, 2017

All times are specified in Local Standard Time (LST). Add 1 hour to adjust for Daylight Saving Time where and when it is observed.

SYDNEY A
NOVA SCOTIA

46°09'41.000" N
60°02'53.000" W
61.90 m
8205701
71707
YQY

Download Data

Hourly Data (October 2017)
Hourly Data Report for October 6, 2017
Temp Definition
°C
Dew Point Temp Definition
°C
Rel Hum Definition
%
Wind Dir Definition
10's deg

Wind Spd Definition
km/h
Visibility Definition
km
Stn Press Definition
kPa
Hmdx Definition


Wind Chill Definition


Weather Definition


TIME
00:00 Legend Double Dagger 7.4 6.4 93 24 11 24.1 100.57     LegendNANA
01:00 Legend Double Dagger 6.7 6.0 95 23 15 24.1 100.55     LegendNANA
02:00 Legend Double Dagger 8.2 6.6 90 22 11 24.1 100.50     Mainly Clear
03:00 Legend Double Dagger 8.2 6.4 88 22 14 24.1 100.47     LegendNANA
04:00 Legend Double Dagger 7.8 6.6 92 23 14 24.1 100.51     LegendNANA
05:00 Legend Double Dagger 10.2 8.7 90 22 13 24.1 100.53     Mostly Cloudy
06:00 Legend Double Dagger 10.8 9.7 93 22 11 24.1 100.53     LegendNANA
07:00 Legend Double Dagger 11.9 9.8 87 21 14 24.1 100.56     LegendNANA
08:00 Legend Double Dagger 11.6 10.1 90 28 4 24.1 100.64     Mostly Cloudy
09:00 Legend Double Dagger 13.7 10.8 83 21 8 24.1 100.64     LegendNANA
10:00 Legend Double Dagger 15.1 10.7 75 28 13 24.1 100.66     LegendNANA
11:00 Legend Double Dagger 16.5 10.0 65 27 16 24.1 100.65     Mostly Cloudy
12:00 Legend Double Dagger 16.0 10.4 69 33 14 24.1 100.65     LegendNANA
13:00 Legend Double Dagger 17.5 8.9 57 30 23 24.1 100.62     LegendNANA
14:00 Legend Double Dagger 16.1 7.4 56 28 20 24.1 100.69     Mostly Cloudy
15:00 Legend Double Dagger 16.9 7.1 52 28 20 24.1 100.74     LegendNANA
16:00 Legend Double Dagger 15.1 7.9 62 29 15 24.1 100.71     LegendNANA
17:00 Legend Double Dagger 13.7 7.3 65 27 9 24.1 100.80     Mostly Cloudy
18:00 Legend Double Dagger 12.7 7.5 70 29 5 24.1 100.87     LegendNANA
19:00 Legend Double Dagger 10.2 8.5 89 16 4 24.1 100.88     LegendNANA
20:00 Legend Double Dagger 11.1 8.3 83 36 2 24.1 100.90     Mostly Cloudy
21:00 Legend Double Dagger 7.7 6.6 93 23 7 24.1 100.99     LegendNANA
22:00 Legend Double Dagger 8.1 7.0 93 21 7 24.1 101.02     LegendNANA
23:00 Legend Double Dagger 6.7 5.9 94 24 7 24.1 101.06     Clear

Notes on Data Quality.

Legend

  • E = Estimated
  • M = Missing
  • NA = Not Available
  • ‡ = Partner data that is not subject to review by the National Climate Archives
Date modified: